Weather History for South Lake Tahoe, CA

Change the Weather History Date:

Wednesday, December 12, 2012

  Actual Average Record
Temperature  
Mean Temperature 22 °F 30 °F  
Max Temperature 36 °F 43 °F 54 °F (2008)
Min Temperature 7 °F 17 °F -2 °F (1968)
Degree Days  
Heating Degree Days 43 35  
Month to date heating degree days 317 411  
Since 1 July heating degree days 2075 2504  
Cooling Degree Days 0 0  
Month to date cooling degree days 0 0  
Year to date cooling degree days 30 31  
Moisture  
Dew Point 23 °F    
Average Humidity 82    
Maximum Humidity 92    
Minimum Humidity 72    
Precipitation  
Precipitation 0.39 in - 1.15 in (1933)
Month to date precipitation 3.49  
Year to date precipitation 19.62  
Sea Level Pressure  
Sea Level Pressure 29.72 in    
Wind  
Wind Speed 8 mph (South)    
Max Wind Speed 21 mph    
Max Gust Speed 33 mph    
Visibility 2 miles    
Events Fog , Snow    
T = Trace of Precipitation, MM = Missing Value Source: NWS Daily Summary

Daily Weather History Graph

Daily Weather History Graph

Search for Another Location

Airport:

Trip Planner

Search our weather history database for the weather conditions in past years. The results will help you decide how hot, cold, wet, or windy it might be!

Date:

Astronomy

Dec. 12, 2012 Rise Set
Actual Time 7:09 AM PST 4:38 PM PST
Civil Twilight 6:39 AM PST 5:08 PM PST
Nautical Twilight 6:06 AM PST 5:41 PM PST
Astronomical Twilight 5:33 AM PST 6:14 PM PST
Moon 6:19 AM PST (12/12) 4:20 PM PST (12/12)
Length of Visible Light 10h 28m
Length of Day
9h 28m
Waning Crescent, 0% of the Moon is Illuminated
Dec 12
Waning Crescent
Dec 13
New
Dec 19
First Quarter
Dec 28
Full
Jan 4
Last Quarter

Hourly Weather History & Observations

Time (PST) Temp. Windchill Dew Point Humidity Pressure Visibility Wind Dir Wind Speed Gust Speed Precip Events Conditions
12:06 AM 35.6 °F 25.2 °F 24.8 °F 65% 29.75 in 1.8 mi South 18.4 mph 29.9 mph 0.00 in Snow Light Snow
12:19 AM 33.8 °F 24.8 °F 26.6 °F 75% 29.73 in 0.8 mi SSW 12.7 mph 26.5 mph 0.00 in Snow Light Snow
12:34 AM 33.8 °F 25.3 °F 26.6 °F 75% 29.73 in 0.8 mi SSW 11.5 mph 20.7 mph 0.00 in Snow Light Snow
12:53 AM 32.0 °F 21.6 °F 28.0 °F 85% 29.66 in 0.2 mi SSW 15.0 mph 31.1 mph 0.01 in Fog , Snow Heavy Snow
1:03 AM 30.2 °F 19.8 °F 28.4 °F 93% 29.74 in 0.2 mi South 13.8 mph - 0.01 in Fog , Snow Heavy Snow
1:44 AM 30.2 °F 25.4 °F 28.4 °F 93% 29.73 in 0.5 mi South 4.6 mph - 0.08 in Fog , Snow Snow
1:53 AM 30.9 °F 25.2 °F 28.0 °F 89% 29.65 in 0.5 mi South 5.8 mph - 0.09 in Fog , Snow Snow
2:35 AM 32.0 °F 25.6 °F 28.4 °F 87% 29.71 in 1.0 mi South 6.9 mph - 0.03 in Snow Light Snow
2:40 AM 32.0 °F 25.6 °F 28.4 °F 87% 29.72 in 1.5 mi South 6.9 mph - 0.03 in Snow Light Snow
2:51 AM 32.0 °F 24.8 °F 28.4 °F 87% 29.73 in 0.8 mi South 8.1 mph - 0.04 in Snow Light Snow
2:53 AM 32.0 °F 25.6 °F 28.0 °F 85% 29.66 in 0.5 mi South 6.9 mph - 0.04 in Fog , Snow Snow
3:05 AM 32.0 °F 26.4 °F 28.4 °F 87% 29.72 in 0.5 mi South 5.8 mph - 0.02 in Fog , Snow Snow
3:09 AM 32.0 °F 27.5 °F 28.4 °F 87% 29.72 in 1.0 mi South 4.6 mph - 0.02 in Snow Light Snow
3:18 AM 32.0 °F 23.0 °F 28.4 °F 87% 29.73 in 1.0 mi South 11.5 mph - 0.02 in Snow Light Snow
3:25 AM 32.0 °F 24.2 °F 28.4 °F 87% 29.72 in 0.5 mi South 9.2 mph - 0.02 in Fog , Snow Snow
3:35 AM 30.2 °F 21.3 °F 26.6 °F 86% 29.71 in 2.5 mi South 10.4 mph - 0.02 in Snow Light Snow
3:38 AM 32.0 °F 24.8 °F 26.6 °F 80% 29.71 in 5.0 mi South 8.1 mph - 0.02 in Snow Light Snow
3:53 AM 33.1 °F 26.1 °F 27.0 °F 78% 29.65 in 2.5 mi South 8.1 mph - 0.03 in Snow Light Snow
4:22 AM 32.0 °F 25.6 °F 28.4 °F 87% 29.70 in 1.0 mi South 6.9 mph - 0.00 in Snow Light Snow
4:33 AM 30.2 °F 20.2 °F 26.6 °F 86% 29.70 in 3.0 mi SSW 12.7 mph 20.7 mph 0.00 in Snow Light Snow
4:53 AM 33.1 °F 23.0 °F 26.1 °F 75% 29.64 in 5.0 mi SSW 15.0 mph 20.7 mph 0.00 in   Haze
5:08 AM 33.8 °F 24.8 °F 24.8 °F 70% 29.71 in 2.5 mi South 12.7 mph 19.6 mph 0.00 in Snow Light Snow
5:13 AM 32.0 °F 23.0 °F 26.6 °F 80% 29.70 in 0.8 mi South 11.5 mph - 0.00 in Snow Light Snow
5:27 AM 30.2 °F 24.3 °F 26.6 °F 86% 29.70 in 2.5 mi South 5.8 mph - 0.00 in Snow Light Snow
5:31 AM 30.2 °F 24.3 °F 26.6 °F 86% 29.70 in 5.0 mi South 5.8 mph - 0.00 in Snow Light Snow
5:43 AM 32.0 °F 24.2 °F 26.6 °F 80% 29.70 in 2.5 mi South 9.2 mph - 0.01 in Snow Light Snow
5:46 AM 32.0 °F 23.6 °F 26.6 °F 80% 29.70 in 0.8 mi South 10.4 mph - 0.01 in Snow Light Snow
5:53 AM 30.9 °F 25.2 °F 27.0 °F 85% 29.65 in 0.2 mi South 5.8 mph - 0.02 in Fog , Snow Heavy Snow
5:58 AM 30.2 °F 23.4 °F 26.6 °F 86% 29.70 in 0.5 mi South 6.9 mph - 0.00 in Fog , Snow Light Snow
6:06 AM 30.2 °F 22.6 °F 28.4 °F 93% 29.69 in 1.5 mi South 8.1 mph - 0.00 in Snow Light Snow
6:20 AM 32.0 °F 24.2 °F 28.4 °F 87% 29.71 in 0.5 mi South 9.2 mph - 0.01 in Fog , Snow Snow
6:27 AM 32.0 °F 23.6 °F 28.4 °F 87% 29.70 in 0.2 mi South 10.4 mph - 0.03 in Fog , Snow Heavy Snow
6:41 AM 30.2 °F 24.3 °F 28.4 °F 93% 29.71 in 0.2 mi South 5.8 mph - 0.06 in Fog , Snow Snow
6:50 AM 30.2 °F 26.7 °F 28.4 °F 93% 29.70 in 1.0 mi South 3.5 mph - 0.06 in Snow Light Snow
6:53 AM 30.9 °F 26.2 °F 28.9 °F 92% 29.66 in 1.5 mi South 4.6 mph - 0.06 in Snow Light Snow
6:56 AM 30.2 °F 26.7 °F 28.4 °F 93% 29.71 in 3.0 mi South 3.5 mph - 0.00 in Snow Light Snow
7:02 AM 30.2 °F 23.4 °F 28.4 °F 93% 29.71 in 1.5 mi South 6.9 mph - 0.01 in Snow Light Snow
7:05 AM 30.2 °F 20.8 °F 28.4 °F 93% 29.71 in 0.8 mi South 11.5 mph 17.3 mph 0.01 in Snow Light Snow
7:17 AM 30.2 °F 20.8 °F 26.6 °F 86% 29.72 in 1.0 mi South 11.5 mph - 0.01 in Snow Light Snow
7:22 AM 30.2 °F 21.9 °F 26.6 °F 86% 29.72 in 0.8 mi SSW 9.2 mph - 0.02 in Snow Light Snow
7:28 AM 30.2 °F 24.3 °F 26.6 °F 86% 29.72 in 1.0 mi SSW 5.8 mph - 0.02 in Snow Light Snow
7:34 AM 32.0 °F 24.8 °F 26.6 °F 80% 29.72 in 3.0 mi SSW 8.1 mph - 0.02 in Snow Light Snow
7:53 AM 32.0 °F 28.7 °F 24.1 °F 73% 29.67 in 1.8 mi Variable 3.5 mph - 0.02 in Snow Light Snow
8:02 AM 30.2 °F 25.4 °F 24.8 °F 80% 29.71 in 0.2 mi Variable 4.6 mph - 0.00 in Snow Heavy Snow
8:13 AM 30.2 °F 24.3 °F 24.8 °F 80% 29.71 in 2.5 mi South 5.8 mph - 0.00 in Snow Light Snow
8:21 AM 30.2 °F 20.2 °F 26.6 °F 86% 29.72 in 0.8 mi South 12.7 mph 16.1 mph 0.00 in Snow Light Snow
8:32 AM 30.2 °F 22.6 °F 26.6 °F 86% 29.72 in 0.2 mi South 8.1 mph - 0.02 in Fog , Snow Heavy Snow
8:40 AM 30.2 °F 25.4 °F 28.4 °F 93% 29.72 in 0.2 mi South 4.6 mph - 0.03 in Fog , Snow Heavy Snow
8:53 AM 30.9 °F - 28.0 °F 89% 29.68 in 0.2 mi Calm Calm - 0.04 in Fog , Snow Light Snow
8:57 AM 30.2 °F - 28.4 °F 93% 29.71 in 1.0 mi Calm Calm - 0.00 in Snow Light Snow
9:06 AM 32.0 °F 28.7 °F 26.6 °F 80% 29.72 in 0.2 mi SSW 3.5 mph - 0.01 in Snow Heavy Snow
9:16 AM 32.0 °F - 28.4 °F 87% 29.72 in 0.2 mi Calm Calm - 0.03 in Fog , Snow Snow
9:23 AM 30.2 °F 25.4 °F 26.6 °F 86% 29.72 in 0.5 mi SSE 4.6 mph - 0.03 in Fog , Snow Light Snow
9:29 AM 32.0 °F 26.4 °F 26.6 °F 80% 29.73 in 1.2 mi SSE 5.8 mph - 0.03 in Snow Light Snow
9:32 AM 30.2 °F 25.4 °F 26.6 °F 86% 29.73 in 2.0 mi South 4.6 mph - 0.03 in Snow Light Snow
9:36 AM 32.0 °F 28.7 °F 28.4 °F 87% 29.73 in 5.0 mi South 3.5 mph - 0.03 in Snow Light Snow
9:42 AM 32.0 °F 28.7 °F 26.6 °F 80% 29.73 in 2.5 mi Variable 3.5 mph - 0.03 in Snow Light Snow
9:53 AM 30.9 °F 26.2 °F 26.1 °F 82% 29.69 in 3.0 mi South 4.6 mph - 0.03 in Snow Light Snow
9:58 AM 30.2 °F 26.7 °F 26.6 °F 86% 29.72 in 8.0 mi ESE 3.5 mph - 0.00 in   Mostly Cloudy
10:29 AM 32.0 °F 22.5 °F 24.8 °F 75% 29.73 in 2.0 mi South 12.7 mph - 0.00 in Snow Light Snow
10:36 AM 30.2 °F 22.6 °F 24.8 °F 80% 29.72 in 1.0 mi SSW 8.1 mph - 0.00 in Snow Light Snow
10:43 AM 30.2 °F 21.9 °F 24.8 °F 80% 29.73 in 3.0 mi SSW 9.2 mph - 0.00 in Snow Light Snow
10:50 AM 30.2 °F 21.9 °F 24.8 °F 80% 29.74 in 1.2 mi SSW 9.2 mph - 0.00 in Snow Light Snow
10:53 AM 30.9 °F 22.2 °F 26.1 °F 82% 29.71 in 0.2 mi SSW 10.4 mph - 0.01 in Snow Heavy Snow
11:00 AM 30.2 °F 21.3 °F 26.6 °F 86% 29.74 in 0.2 mi South 10.4 mph - 0.00 in Fog , Snow Heavy Snow
11:12 AM 30.2 °F 23.4 °F 24.8 °F 80% 29.73 in 1.0 mi South 6.9 mph - 0.00 in Snow Light Snow
11:21 AM 30.2 °F 25.4 °F 24.8 °F 80% 29.71 in 3.0 mi SSE 4.6 mph - 0.00 in Snow Light Snow
11:30 AM 30.2 °F 26.7 °F 24.8 °F 80% 29.71 in 9.0 mi South 3.5 mph - 0.00 in   Overcast
11:46 AM 32.0 °F 28.7 °F 24.8 °F 75% 29.72 in 2.5 mi South 3.5 mph - 0.00 in Snow Light Snow
11:53 AM 32.0 °F 27.5 °F 25.0 °F 75% 29.68 in 2.0 mi SSE 4.6 mph - 0.00 in Snow Light Snow
11:58 AM 30.2 °F 24.3 °F 24.8 °F 80% 29.70 in 5.0 mi SSE 5.8 mph - 0.00 in Snow Light Snow
12:16 PM 30.2 °F 21.3 °F 24.8 °F 80% 29.72 in 2.5 mi South 10.4 mph - 0.00 in Snow Light Snow
12:25 PM 30.2 °F 21.3 °F 24.8 °F 80% 29.72 in 1.0 mi South 10.4 mph - 0.00 in Snow Light Snow
12:30 PM 30.2 °F 21.9 °F 24.8 °F 80% 29.71 in 0.5 mi South 9.2 mph - 0.01 in Snow Snow
12:42 PM 28.4 °F 22.2 °F 24.8 °F 86% 29.70 in 1.2 mi South 5.8 mph - 0.01 in Snow Light Snow
12:46 PM 30.2 °F 25.4 °F 24.8 °F 80% 29.70 in 3.0 mi South 4.6 mph - 0.01 in Snow Light Snow
12:53 PM 30.0 °F 22.4 °F 24.1 °F 79% 29.71 in 3.0 mi SSW 8.1 mph - 0.01 in Snow Light Snow
12:55 PM 30.2 °F 23.4 °F 24.8 °F 80% 29.72 in 1.5 mi South 6.9 mph - 0.00 in Snow Light Snow
12:59 PM 30.2 °F 21.9 °F 24.8 °F 80% 29.72 in 0.8 mi South 9.2 mph - 0.00 in Snow Light Snow
1:16 PM 28.4 °F 21.2 °F 24.8 °F 86% 29.72 in 0.5 mi South 6.9 mph - 0.00 in Snow Snow
1:28 PM 28.4 °F 21.2 °F 23.0 °F 80% 29.70 in 0.8 mi SSE 6.9 mph - 0.00 in Snow Light Snow
1:31 PM 28.4 °F 24.6 °F 23.0 °F 80% 29.70 in 1.5 mi SSE 3.5 mph - 0.00 in Snow Light Snow
1:35 PM 28.4 °F - 23.0 °F 80% 29.69 in 3.0 mi Calm Calm - 0.00 in Snow Light Snow
1:46 PM 28.4 °F 22.2 °F 23.0 °F 80% 29.70 in 0.8 mi SSW 5.8 mph - 0.00 in Snow Light Snow
1:53 PM 28.0 °F 20.0 °F 23.0 °F 81% 29.70 in 0.2 mi South 8.1 mph - 0.01 in Snow Heavy Snow
2:10 PM 28.4 °F 21.2 °F 23.0 °F 80% 29.72 in 0.8 mi South 6.9 mph - 0.00 in Snow Light Snow
2:40 PM 28.4 °F 23.3 °F 23.0 °F 80% 29.70 in 0.8 mi South 4.6 mph - 0.01 in Snow Light Snow
2:49 PM 28.4 °F 21.2 °F 21.2 °F 74% 29.72 in 0.8 mi South 6.9 mph - 0.02 in Snow Light Snow
2:53 PM 28.0 °F 20.0 °F 21.9 °F 78% 29.73 in 1.2 mi South 8.1 mph - 0.02 in Snow Light Snow
2:57 PM 26.6 °F 17.5 °F 21.2 °F 80% 29.72 in 0.8 mi South 9.2 mph - 0.00 in Snow Light Snow
3:17 PM 26.6 °F 17.5 °F 21.2 °F 80% 29.73 in 0.5 mi South 9.2 mph - 0.00 in Snow Snow
3:28 PM 26.6 °F 17.5 °F 21.2 °F 80% 29.74 in 0.5 mi South 9.2 mph - 0.00 in Snow Snow
3:39 PM 26.6 °F 18.2 °F 21.2 °F 80% 29.72 in 1.0 mi SSE 8.1 mph - 0.00 in Snow Light Snow
3:47 PM 26.6 °F 21.2 °F 21.2 °F 80% 29.72 in 3.0 mi SSW 4.6 mph - 0.00 in Snow Light Snow
3:53 PM 26.1 °F 19.4 °F 19.9 °F 78% 29.73 in 7.0 mi South 5.8 mph - 0.00 in Snow Light Snow
4:53 PM 25.0 °F 20.7 °F 19.0 °F 78% 29.73 in 10.0 mi SSW 3.5 mph - 0.00 in   Overcast
5:53 PM 24.1 °F - 18.0 °F 77% 29.75 in 10.0 mi Calm Calm - N/A   Mostly Cloudy
6:53 PM 18.0 °F - 15.1 °F 88% 29.78 in 10.0 mi Calm Calm - N/A   Partly Cloudy
7:17 PM 15.8 °F - 12.2 °F 86% 29.73 in 2.0 mi Calm Calm - N/A   Clear
7:24 PM 17.6 °F - 12.2 °F 79% 29.73 in 1.0 mi Calm Calm - N/A   Haze
7:28 PM 19.4 °F - 14.0 °F 80% 29.73 in 3.0 mi Calm Calm - N/A   Haze
7:35 PM 17.6 °F - 12.2 °F 79% 29.73 in 1.8 mi Calm Calm - N/A   Clear
7:47 PM 19.4 °F 11.5 °F 14.0 °F 80% 29.73 in 4.0 mi SSW 5.8 mph - N/A   Haze
7:53 PM 19.9 °F - 16.0 °F 85% 29.77 in 10.0 mi Calm Calm - N/A   Clear
8:07 PM 15.8 °F - 12.2 °F 86% 29.74 in 2.0 mi Calm Calm - N/A   Clear
8:14 PM 15.8 °F - 10.4 °F 79% 29.74 in 1.2 mi Calm Calm - N/A   Haze
8:18 PM 17.6 °F - 12.2 °F 79% 29.74 in 3.0 mi Calm Calm - N/A   Haze
8:22 PM 15.8 °F - 10.4 °F 79% 29.74 in 0.8 mi Calm Calm - N/A   Clear
8:40 PM 15.8 °F - 10.4 °F 79% 29.74 in 2.5 mi Calm Calm - N/A   Haze
8:42 PM 15.8 °F - 10.4 °F 79% 29.74 in 7.0 mi Calm Calm - N/A   Clear
8:53 PM 16.0 °F - 10.9 °F 81% 29.79 in 10.0 mi Calm Calm - N/A   Clear
9:07 PM 12.2 °F 4.3 °F 8.6 °F 85% 29.74 in 2.5 mi South 4.6 mph - N/A   Clear
9:14 PM 15.8 °F - 10.4 °F 79% 29.74 in 1.8 mi Calm Calm - N/A   Haze
9:17 PM 15.8 °F - 10.4 °F 79% 29.74 in 3.0 mi Calm Calm - N/A   Haze
9:34 PM 15.8 °F - 8.6 °F 73% 29.75 in 10.0 mi Calm Calm - N/A   Clear
9:53 PM 12.0 °F - 7.0 °F 80% 29.83 in 6.0 mi Calm Calm - N/A   Haze
10:41 PM 12.2 °F - 8.6 °F 85% 29.77 in 2.5 mi Calm Calm - N/A   Clear
10:51 PM 12.2 °F - 6.8 °F 79% 29.77 in 5.0 mi Calm Calm - N/A   Haze
10:53 PM 12.9 °F - 7.0 °F 77% 29.84 in 9.0 mi Calm Calm - N/A   Clear
11:24 PM 8.6 °F - 6.8 °F 92% 29.77 in 2.5 mi Calm Calm - N/A   Clear
11:33 PM 8.6 °F 2.0 °F 3.2 °F 79% 29.76 in 5.0 mi SSW 3.5 mph - N/A   Haze
11:53 PM 8.1 °F 1.4 °F 3.9 °F 83% 29.86 in 10.0 mi South 3.5 mph - N/A   Clear